Location: Squirrel Cove
(50.1074°N, 124.9139°W)
Time: 13:08:04
(UTC-07:00)

PCSat - Pass Details

Date: 22 May 2022
Orbit: 784 x 795 km, 67.1° (Epoch: 26 June)

Event Time Altitude Azimuth Distance (km) Brightness Sun altitude
Rises 22:26:30 0° 288° (WNW) 3,296 13.9 -10.0°
Reaches altitude 10° 22:30:04 10° 311° (NW) 2,370 13.6 -10.3°
Maximum altitude 22:33:06 15° 346° (NNW) 2,046 12.8 -10.6°
Drops below altitude 10° 22:36:10 10° 20° (NNE) 2,374 12.5 -10.9°
Sets 22:39:44 0° 44° (NE) 3,306 12.9 -11.3°
